Dewpoint
24 25 27 28 29 29 30 30 31 31 31 30 29 28 27 27 26 26 26 26 25 25 25 26 26 27 29 29 30 30 31 32 32 32 33 33 33 34 34 34 35 36 36 36 36 36 36 36 36 35 35 34 34 34 35 35 36 36 36 36 37 38 39 40 41 42 43 43 43
25 27 29 30 30 31 31 31 31 31 31 31 30 28 27 26 26 25 25 25 25 25 25 26 27 28 28 29 30 30 30 31 31 31 32 32 33 33 34 34 35 35 35 35 35 36 36 35 35 34 34 34 33 33 34 35 36 35 35 35 36 37 37 38 39 41 42 43 43
28 29 29 30 30 30 30 30 29 28 27 27 27 27 27 26 26 26 26 26 26 26 26 26 29 29 28 29 30 30 30 31 31 31 31 31 32 33 34 34 34 35 34 34 34 35 35 35 35 34 34 33 33 32 32 33 33 34 34 34 34 35 35 35 37 39 41 43 43
29 29 28 28 27 27 27 27 26 25 25 25 26 27 27 27 27 27 26 26 26 27 27 27 30 31 30 30 30 30 30 30 30 30 30 31 31 32 33 34 34 34 34 34 34 34 34 34 35 34 33 32 32 32 32 31 32 33 33 34 34 34 34 34 36 38 39 41 43
28 28 28 27 26 26 27 27 26 26 26 26 26 26 26 27 27 27 27 27 27 26 26 27 30 31 31 30 30 30 30 30 30 30 30 30 31 32 33 34 34 34 34 34 34 34 34 34 34 34 33 32 32 32 32 32 33 33 33 34 34 34 34 34 35 36 38 39 41
26 26 27 27 27 26 26 26 26 26 26 27 26 25 26 26 26 26 26 26 26 26 26 27 29 30 30 29 29 28 29 29 29 30 30 31 31 32 32 33 34 34 34 33 33 33 33 33 34 33 32 31 32 32 32 33 33 33 34 34 34 34 34 34 34 35 37 38 40
21 21 22 22 23 24 24 25 26 26 26 26 25 25 25 26 26 26 26 26 26 26 27 28 29 29 29 28 28 28 28 28 28 29 30 30 31 32 32 33 33 33 33 33 32 32 33 33 33 33 32 32 31 32 32 32 32 33 33 34 33 34 34 35 35 36 37 38 39
17 17 17 17 18 20 21 24 24 24 25 25 25 25 25 26 26 26 26 26 26 27 27 28 29 29 29 29 29 29 28 28 28 29 29 30 30 31 32 32 32 32 32 32 32 32 32 33 33 33 32 32 31 31 32 32 32 33 33 34 34 34 35 36 37 37 37 38 39
20 20 20 20 20 21 22 23 24 25 25 25 27 27 26 27 27 27 27 27 28 28 28 28 28 28 28 29 28 28 27 27 26 26 27 28 29 30 30 31 31 31 31 32 32 32 32 32 32 32 32 32 31 32 32 32 32 33 33 33 34 34 34 35 36 37 37 38 38
21 21 22 22 23 23 24 24 25 25 25 25 26 26 26 26 27 27 27 28 29 29 29 29 28 27 27 27 27 27 27 26 26 25 25 25 26 27 27 28 29 29 30 30 30 31 31 32 32 33 33 33 33 33 33 33 33 33 33 33 34 34 34 35 35 36 36 37 37
22 22 22 22 23 23 23 24 24 24 24 24 24 25 25 25 26 26 26 27 27 27 27 27 26 26 26 26 26 26 26 25 25 25 24 24 24 24 25 25 26 26 27 28 29 30 30 30 31 31 32 32 32 33 33 33 33 33 33 33 33 33 34 34 34 35 35 36 36
21 21 21 21 21 21 21 21 21 21 21 22 21 22 23 23 24 24 24 24 25 25 25 25 25 25 25 25 25 25 24 25 24 24 23 23 23 23 24 24 25 25 26 27 28 28 29 29 29 30 30 31 31 32 33 33 33 33 33 33 33 33 33 34 34 34 35 35 36
18 18 18 18 18 19 19 19 19 19 19 20 20 20 21 21 22 22 22 23 23 23 23 24 24 24 24 24 24 24 24 24 24 24 24 24 24 24 24 25 25 25 26 27 28 28 28 28 29 29 29 30 30 31 32 32 32 33 33 32 33 33 33 33 34 34 34 34 35
16 16 16 16 16 17 17 17 18 18 19 19 19 20 20 21 21 21 22 22 22 23 23 23 24 24 24 24 24 24 24 25 25 25 25 25 25 25 25 26 26 27 27 28 29 29 28 28 29 29 29 30 30 31 31 32 32 32 32 32 32 33 33 33 33 34 34 34 34
15 15 15 16 16 16 17 17 17 18 19 19 19 20 20 20 21 21 22 23 23 24 24 24 24 24 25 25 25 25 25 25 25 25 25 25 26 26 26 27 27 27 28 29 29 29 29 29 29 29 29 30 30 30 31 32 32 32 32 32 33 33 33 33 33 34 34 34 34
15 15 16 16 16 16 17 17 17 18 19 19 19 20 20 20 21 23 24 25 25 25 25 25 24 25 25 25 25 25 25 25 25 25 25 25 26 26 27 27 27 28 28 29 29 29 30 29 29 29 29 29 30 30 30 31 32 33 33 34 33 33 33 33 33 34 34 34 34
15 16 16 16 16 17 17 17 17 18 19 19 19 20 21 21 22 23 24 25 25 26 26 25 25 25 25 25 25 26 25 25 25 25 25 25 25 26 27 27 27 28 28 29 29 29 29 30 30 30 30 30 30 30 30 31 32 33 33 34 34 34 33 33 33 33 34 34 34
16 16 16 16 16 16 16 17 17 18 18 19 20 21 21 22 23 24 24 25 25 26 27 27 27 26 26 26 26 26 26 26 25 25 25 25 25 26 26 27 27 28 28 29 29 29 30 30 30 30 30 30 30 30 31 31 32 32 33 34 34 34 34 33 33 33 33 34 34
16 16 16 16 16 16 17 17 17 18 19 20 21 21 22 23 24 24 24 25 25 25 26 28 28 27 26 26 26 26 26 26 26 25 25 25 26 26 26 26 27 28 28 29 29 29 30 30 30 30 31 30 31 31 31 32 32 32 33 33 34 34 34 34 34 34 33 33 34
16 16 16 16 16 17 17 17 18 19 20 21 22 23 23 24 24 24 24 25 25 25 26 28 28 27 26 26 26 26 26 26 26 26 26 26 26 26 26 26 27 27 28 28 28 29 29 30 29 30 30 30 31 31 31 31 32 32 32 33 33 34 34 34 34 34 34 34 34
16 16 16 17 17 17 17 18 19 20 21 22 23 23 24 25 25 24 24 24 25 26 27 27 28 27 26 25 25 25 25 25 25 25 25 26 26 26 26 26 26 27 27 27 27 28 28 29 29 29 30 31 31 31 31 31 31 31 32 32 33 33 34 34 34 34 34 34 34
16 17 17 17 18 18 18 19 20 21 22 23 23 24 25 25 25 25 25 25 26 26 26 26 26 26 26 25 25 25 25 25 25 25 25 26 26 26 26 26 26 26 27 28 28 28 28 29 29 30 30 30 31 31 31 31 31 31 31 32 32 33 34 34 33 33 33 34 33
17 17 18 18 18 19 19 19 20 21 21 22 23 24 25 26 26 25 25 26 26 26 26 26 26 26 26 26 25 25 25 25 26 26 27 27 27 27 26 26 26 26 26 27 27 28 29 30 30 30 30 30 31 32 32 32 31 31 31 32 32 33 34 34 34 34 34 34 34
18 18 18 18 18 19 19 19 19 20 20 21 21 23 24 25 25 25 25 25 26 26 26 27 27 26 26 27 27 26 26 26 26 27 27 27 27 26 25 25 25 25 25 26 28 29 30 30 30 30 29 30 31 31 31 32 32 32 32 32 32 33 33 34 34 34 34 34 34
18 19 19 18 18 18 18 18 18 18 18 18 19 20 22 24 25 25 25 25 25 25 25 26 26 26 26 27 27 26 26 26 26 26 26 27 27 26 26 25 25 26 27 28 29 30 30 30 30 29 28 29 29 30 32 32 33 33 33 33 33 33 33 34 34 34 34 34 34
19 19 18 18 18 18 18 18 17 17 17 17 17 18 19 21 23 24 24 25 25 25 25 25 26 26 26 26 26 26 26 25 26 26 26 27 27 26 26 25 25 26 28 29 29 30 30 31 30 30 29 29 29 30 30 32 33 34 34 34 34 34 33 33 33 33 34 34 34
19 19 18 18 18 18 17 17 17 17 16 16 16 16 17 19 21 22 24 24 24 25 25 25 25 25 25 25 25 25 25 25 25 26 26 27 27 27 26 26 26 28 30 30 30 30 30 31 31 31 31 31 31 30 31 31 32 34 34 34 34 34 33 33 33 33 33 32 34
19 19 19 19 18 18 17 17 16 16 16 16 16 16 17 18 19 21 22 24 24 24 25 25 25 25 25 24 25 25 25 25 25 25 26 26 26 26 26 25 26 27 28 28 29 29 30 30 30 31 31 32 33 33 34 33 33 33 34 34 34 34 34 34 34 34 34 33 33
19 20 20 19 19 18 18 17 16 16 16 16 16 17 18 19 19 20 21 22 23 23 23 23 24 24 23 23 24 24 24 24 25 25 25 25 25 25 25 25 25 25 26 27 27 28 28 29 29 30 30 31 32 34 34 34 34 34 34 34 34 34 34 34 34 34 34 34 34
19 20 20 20 19 19 18 18 17 17 17 17 17 17 18 18 19 19 19 20 21 22 22 22 22 23 23 23 23 23 23 23 24 24 24 25 25 25 25 24 25 25 26 27 27 27 28 28 28 29 29 30 31 32 33 34 34 34 34 34 34 34 34 34 34 34 34 34 34
19 19 20 20 19 19 18 18 18 18 18 18 17 17 18 18 18 18 19 20 20 21 21 21 22 22 22 21 21 21 21 22 22 23 24 24 24 24 24 24 24 25 26 27 27 27 28 28 28 28 29 29 30 30 31 32 33 33 34 34 34 34 34 34 34 34 34 34 34
18 19 19 19 19 19 18 18 18 18 18 18 17 17 17 17 18 19 19 20 20 21 21 20 21 21 21 20 20 20 21 21 22 22 23 23 23 23 24 24 24 25 25 27 27 27 28 28 28 28 28 29 28 29 30 30 31 32 32 33 33 33 33 32 33 33 33 33 33
19 18 18 18 18 18 18 18 18 18 18 18 18 18 18 17 18 19 19 19 20 20 20 20 20 20 20 20 20 20 20 21 22 22 22 22 23 23 23 23 24 25 26 27 27 28 28 28 28 28 28 29 29 29 30 30 30 30 31 31 31 32 32 32 32 32 32 32 33
20 18 18 17 18 18 18 17 18 19 20 19 18 18 18 18 18 18 19 19 19 19 19 19 19 19 20 20 20 20 21 22 22 22 22 22 22 22 23 23 25 26 27 27 28 28 28 29 29 29 29 29 29 29 29 29 30 30 30 30 30 31 31 31 31 31 31 31 31
19 18 18 18 17 17 17 17 18 19 20 19 18 18 19 18 18 19 19 19 19 19 19 19 19 19 20 20 20 21 21 22 23 23 23 23 23 23 23 23 24 25 27 27 28 28 29 29 29 29 29 29 30 30 30 29 30 30 30 30 30 30 30 30 30 30 30 30 31
18 19 20 20 18 17 17 17 17 17 18 19 20 20 20 19 19 18 19 19 19 18 18 19 19 19 19 20 21 21 21 22 23 23 24 24 23 23 23 23 24 25 26 27 28 28 29 29 29 29 29 29 29 30 30 30 30 30 30 30 30 30 30 30 30 30 30 30 31
18 19 20 19 17 16 16 16 16 17 17 18 19 19 19 18 18 18 18 18 18 18 18 19 19 19 19 20 21 21 21 22 22 23 24 24 24 24 23 23 24 24 25 27 28 28 29 29 29 29 29 29 29 29 29 30 30 30 30 30 30 30 30 30 30 30 31 30 31
17 18 18 17 16 16 16 16 16 17 17 17 17 18 18 17 17 17 18 19 18 18 19 19 19 19 20 20 21 21 22 22 23 23 24 24 24 24 24 24 24 25 25 27 27 28 29 29 29 29 29 29 29 29 29 29 29 30 30 30 30 30 30 31 31 31 31 31 31
16 16 16 15 16 16 16 16 16 16 16 16 16 16 17 17 17 18 18 18 19 19 19 19 19 20 21 21 21 22 22 23 23 24 24 25 25 25 25 24 25 25 25 27 28 28 29 29 29 29 29 29 29 29 29 29 29 29 29 29 30 30 30 31 31 32 32 32 32
16 16 16 16 16 16 16 16 16 16 16 16 16 16 16 17 18 18 18 18 19 19 19 20 20 20 21 21 21 22 22 23 23 24 24 25 25 25 26 25 25 25 26 27 28 29 29 29 30 30 30 29 29 29 29 29 28 28 28 29 29 29 30 30 31 32 32 32 33
16 16 16 16 16 16 16 16 16 16 16 16 16 16 16 17 18 18 19 19 19 20 20 20 20 21 21 21 22 22 23 23 23 24 24 25 25 25 26 26 26 26 26 27 28 29 29 30 30 30 30 29 29 29 29 29 28 28 28 28 28 29 29 30 30 31 32 32 33